Weather in Cambridge

Canada     43°22′14″N   80°19′08″W
temp.,
°C
wind,
m/s
gust,
m/s
humid.,
%
clouds,
%
prec.,
mm/h
press.,
hPa
HPBL,
m
15 april, thu
thu1523:00+6nw5683100 0.0 1012661
02:00+4nw458099 0.0 1012492
05:00+2wnw368880 0.0 1011235
08:00+2wnw468191 0.0 1011415
11:00+6wnw455698 0.1 10101568
14:00+6wnw5660100 0.4 10091519
17:00+6wnw5662100 0.5 10081338
20:00+5wnw5869100 0.6 1008670
16 april, fri
fri1623:00+4wnw61388100 0.0 1007709
02:00+4wnw61395100 0.0 1006675
05:00+2wnw61396100 2.4 1006693
08:00+3wnw61296100 3.1 1006649
11:00+3nw61196100 0.5 1007535
14:00+4nw5996100 0.5 1008534
17:00+4nw5996100 0.1 1009533
20:00+3nw3897100 0.3 1010405
17 april, sat
sat1723:00+3nw3598100 0.3 1011342
02:00+3nw2497100 0.6 1011304
05:00+3nne3497100 0.1 1012571
08:00+3nne3795100 0.5 1013433
11:00+6ne3471100 0.1 10131013
14:00+7ne2266100 0.1 10131017
17:00+8nne1163100 0.1 1012970
20:00+6ne238285 0.4 101395
18 april, sun
sun1823:00+5nne228899 0.1 101473
02:00+4n238988 0.1 101475
05:00+5nnw3481100 0.0 1013165
08:00+5nnw3586100 0.0 1014251
11:00+8nw337387 0.1 1014847
14:00+9nw346688 0.7 10131090
17:00+11nnw235694 0.6 10121202
20:00+7nnw3683100 1.5 1013264
19 april, mon
mon1923:00+7nnw248699 0.1 1014159
02:00+6e118771 0.3 101419
05:00+5wnw229076 0.0 101332
08:00+6nw1285100 0.0 101486
11:00+10sw336066 0.0 10141307
14:00+11wsw455587 0.3 10141310
17:00+11wsw5658100 0.1 10131307
20:00+8ssw49705 0.1 1013254